TimeCST,TemperatureF,Dew PointF,Humidity,Sea Level PressureIn,VisibilityMPH,Wind Direction,Wind SpeedMPH,Gust SpeedMPH,PrecipitationIn,Events,Conditions,WindDirDegrees,DateUTC
12:15 AM,34.9,25.7,69,30.16,10.0,North,10.4,-,N/A,,Overcast,360,2012-11-26 06:15:00
12:35 AM,34.9,25.7,69,30.16,10.0,North,9.2,-,N/A,,Overcast,360,2012-11-26 06:35:00
12:55 AM,34.7,25.3,69,30.16,10.0,North,10.4,-,N/A,,Overcast,10,2012-11-26 06:55:00
1:15 AM,34.7,24.8,67,30.16,10.0,NNE,8.1,-,N/A,,Overcast,20,2012-11-26 07:15:00
1:35 AM,34.7,24.8,67,30.16,10.0,North,8.1,-,N/A,,Overcast,360,2012-11-26 07:35:00
1:55 AM,34.7,24.6,67,30.16,10.0,NNE,11.5,-,N/A,,Overcast,20,2012-11-26 07:55:00
2:15 AM,34.5,24.4,67,30.16,10.0,NNE,10.4,-,N/A,,Overcast,20,2012-11-26 08:15:00
2:35 AM,34.3,24.3,67,30.16,10.0,NNE,9.2,-,N/A,,Overcast,30,2012-11-26 08:35:00
2:55 AM,34.0,24.3,68,30.17,10.0,NNE,11.5,-,N/A,,Overcast,20,2012-11-26 08:55:00
3:15 AM,33.8,24.3,68,30.19,10.0,NNE,10.4,-,N/A,,Overcast,20,2012-11-26 09:15:00
3:35 AM,33.8,24.3,68,30.19,10.0,North,10.4,-,N/A,,Overcast,10,2012-11-26 09:35:00
3:55 AM,33.8,24.4,69,30.19,10.0,North,6.9,-,N/A,,Overcast,10,2012-11-26 09:55:00
4:15 AM,33.4,24.4,70,30.20,10.0,North,10.4,-,N/A,,Overcast,10,2012-11-26 10:15:00
4:55 AM,33.1,24.6,71,30.22,10.0,NNE,9.2,-,N/A,,Overcast,20,2012-11-26 10:55:00
5:15 AM,33.1,24.4,71,30.23,10.0,North,8.1,-,N/A,,Overcast,10,2012-11-26 11:15:00
5:35 AM,32.9,24.4,71,30.24,10.0,North,9.2,-,N/A,,Overcast,360,2012-11-26 11:35:00
6:15 AM,32.9,23.4,68,30.25,10.0,NNE,8.1,-,N/A,,Overcast,20,2012-11-26 12:15:00
6:35 AM,32.5,23.5,69,30.26,10.0,NNE,9.2,-,N/A,,Overcast,20,2012-11-26 12:35:00
6:55 AM,32.2,23.7,71,30.27,10.0,North,12.7,-,N/A,,Overcast,10,2012-11-26 12:55:00
7:15 AM,32.0,24.6,74,30.31,10.0,NNW,12.7,-,N/A,,Overcast,340,2012-11-26 13:15:00
7:35 AM,32.0,25.0,75,30.31,10.0,North,13.8,-,N/A,,Overcast,360,2012-11-26 13:35:00
7:55 AM,30.6,27.0,86,30.31,3.0,North,11.5,-,N/A,Snow,Light Snow,360,2012-11-26 13:55:00
8:15 AM,30.6,27.0,86,30.34,3.0,North,13.8,-,N/A,Snow,Light Snow,360,2012-11-26 14:15:00
8:35 AM,30.2,27.1,88,30.36,2.0,North,8.1,19.6,N/A,Snow,Light Snow,350,2012-11-26 14:35:00
8:55 AM,30.0,27.5,90,30.36,2.0,North,9.2,-,N/A,Snow,Light Snow,350,2012-11-26 14:55:00
9:15 AM,29.8,27.3,90,30.37,1.5,North,13.8,-,N/A,Snow,Light Snow,350,2012-11-26 15:15:00
9:35 AM,29.5,27.0,90,30.38,1.2,North,13.8,-,N/A,Snow,Light Snow,360,2012-11-26 15:35:00
9:55 AM,29.5,26.6,89,30.39,1.8,North,12.7,-,N/A,Snow,Light Snow,350,2012-11-26 15:55:00
10:15 AM,28.9,25.7,88,30.40,2.0,NNW,17.3,-,N/A,Snow,Light Snow,340,2012-11-26 16:15:00
10:35 AM,28.9,25.9,88,30.41,2.0,North,13.8,-,N/A,Snow,Light Snow,350,2012-11-26 16:35:00
10:55 AM,28.9,25.7,88,30.42,2.0,NNW,17.3,-,N/A,Snow,Light Snow,340,2012-11-26 16:55:00
11:15 AM,28.8,25.3,87,30.43,4.0,North,16.1,20.7,N/A,Snow,Light Snow,360,2012-11-26 17:15:00
11:35 AM,28.0,23.9,84,30.43,5.0,North,12.7,-,N/A,,Overcast,350,2012-11-26 17:35:00
11:55 AM,27.9,22.3,80,30.42,7.0,North,15.0,-,N/A,Snow,Light Snow,360,2012-11-26 17:55:00
12:15 PM,28.0,20.8,74,30.42,10.0,North,16.1,20.7,N/A,,Overcast,360,2012-11-26 18:15:00
12:35 PM,28.2,20.8,74,30.42,10.0,North,15.0,-,N/A,,Mostly Cloudy,360,2012-11-26 18:35:00
12:55 PM,28.9,21.2,73,30.41,10.0,North,13.8,-,N/A,,Scattered Clouds,360,2012-11-26 18:55:00
1:15 PM,29.1,21.4,73,30.42,10.0,North,12.7,-,N/A,,Mostly Cloudy,360,2012-11-26 19:15:00
1:35 PM,29.1,21.6,73,30.41,10.0,North,15.0,18.4,N/A,,Mostly Cloudy,350,2012-11-26 19:35:00
1:55 PM,29.7,21.7,72,30.41,10.0,North,13.8,-,N/A,,Mostly Cloudy,360,2012-11-26 19:55:00
2:15 PM,30.2,21.2,69,30.41,10.0,NNW,11.5,-,N/A,,Scattered Clouds,330,2012-11-26 20:15:00
2:35 PM,29.5,21.0,71,30.41,10.0,NNW,10.4,16.1,N/A,,Scattered Clouds,340,2012-11-26 20:35:00
2:55 PM,30.2,20.5,67,30.41,10.0,North,15.0,18.4,N/A,,Scattered Clouds,350,2012-11-26 20:55:00
3:15 PM,30.0,19.8,66,30.41,10.0,NNW,11.5,16.1,N/A,,Scattered Clouds,340,2012-11-26 21:15:00
3:35 PM,30.2,19.4,64,30.41,10.0,NNW,11.5,17.3,N/A,,Clear,340,2012-11-26 21:35:00
3:55 PM,29.7,17.6,61,30.41,10.0,NNW,10.4,-,N/A,,Clear,340,2012-11-26 21:55:00
4:15 PM,28.9,16.5,60,30.41,10.0,North,11.5,-,N/A,,Clear,350,2012-11-26 22:15:00
4:35 PM,27.5,15.1,60,30.41,10.0,NNW,8.1,-,N/A,,Clear,340,2012-11-26 22:35:00
4:55 PM,25.2,14.5,64,30.41,10.0,NNW,6.9,-,N/A,,Clear,330,2012-11-26 22:55:00
5:15 PM,23.2,13.6,67,30.42,10.0,NNW,5.8,-,N/A,,Clear,330,2012-11-26 23:15:00
5:35 PM,23.0,13.1,66,30.42,10.0,NNW,5.8,-,N/A,,Clear,330,2012-11-26 23:35:00
5:55 PM,21.4,12.4,68,30.43,10.0,NNW,5.8,-,N/A,,Clear,330,2012-11-26 23:55:00
6:15 PM,20.8,11.1,66,30.43,10.0,NNW,4.6,-,N/A,,Clear,330,2012-11-27 00:15:00
6:35 PM,18.7,11.1,72,30.44,10.0,NNW,4.6,-,N/A,,Clear,340,2012-11-27 00:35:00
6:55 PM,19.2,11.3,71,30.44,10.0,NNW,4.6,-,N/A,,Clear,330,2012-11-27 00:55:00
7:15 PM,19.0,11.3,72,30.44,10.0,NNW,4.6,-,N/A,,Clear,330,2012-11-27 01:15:00
7:35 PM,17.1,10.2,75,30.44,10.0,NW,4.6,-,N/A,,Clear,320,2012-11-27 01:35:00
7:55 PM,17.2,9.5,72,30.43,10.0,NNW,5.8,-,N/A,,Clear,340,2012-11-27 01:55:00
8:15 PM,17.2,10.0,73,30.44,10.0,NW,4.6,-,N/A,,Clear,320,2012-11-27 02:15:00
8:35 PM,17.6,9.9,72,30.44,10.0,WNW,3.5,-,N/A,,Clear,300,2012-11-27 02:35:00
8:55 PM,16.2,9.3,74,30.44,10.0,WNW,3.5,-,N/A,,Clear,290,2012-11-27 02:55:00
9:15 PM,17.4,11.1,76,30.44,10.0,Calm,Calm,-,N/A,,Clear,0,2012-11-27 03:15:00
9:35 PM,15.8,10.9,81,30.45,10.0,SW,3.5,-,N/A,,Clear,220,2012-11-27 03:35:00
9:55 PM,15.4,9.0,76,30.45,10.0,SW,4.6,-,N/A,,Clear,220,2012-11-27 03:55:00
10:15 PM,14.5,9.9,82,30.45,10.0,WSW,3.5,-,N/A,,Clear,240,2012-11-27 04:15:00
10:55 PM,14.9,10.8,84,30.44,10.0,WSW,3.5,-,N/A,,Clear,250,2012-11-27 04:55:00
11:15 PM,15.6,11.1,82,30.43,10.0,WSW,3.5,-,N/A,,Clear,250,2012-11-27 05:15:00
11:35 PM,13.6,9.3,83,30.43,10.0,Calm,Calm,-,N/A,,Clear,0,2012-11-27 05:35:00
11:55 PM,13.1,9.1,84,30.43,10.0,Calm,Calm,-,N/A,,Clear,0,2012-11-27 05:55:00